Regional Weather Roundup
Issued by NWS Sioux Falls, SD

Home | Current Version | Previous Version | Text Only | Print | Product List | Glossary On
Versions: 1 2 3 4 5 6 7 8 9 10 11 12 13 14 15 16 17 18 19 20 21 22 23 24 25 26 27 28 29 30 31 32 33 34 35 36 37 38 39 40 41 42 43 44 45 46 47 48 49 50
000
ASUS43 KFSD 161710
RWRFSD

WEATHER ROUNDUP FOR SE SOUTH DAKOTA/SW MINNESOTA/NW IOWA
NATIONAL WEATHER SERVICE SIOUX FALLS SD
1200 PM CDT WED APR 16 2014

NOTE: "FAIR" INDICATES FEW OR NO CLOUDS BELOW 12,000 FEET WITH NO
SIGNIFICANT WEATHER AND OR OBSTRUCTIONS TO VISIBILITY.


SDZ038>040-050-052>070-161800-
SOUTHEAST SOUTH DAKOTA

CITY           SKY/WX    TMP DP  RH WIND       PRES   REMARKS
CHAMBERLAIN    NOT AVBL
HURON          LGT SNOW  31  28  89 N22G29    29.81R VSB 1   WCI  18
MITCHELL       CLOUDY    36  32  85 N23G30    29.72R
SIOUX FALLS    CLOUDY    47  37  68 S13       29.65R
WINNER         MIX PCPN  32  29  88 N22G30    29.84R WCI  19
YANKTON        CLOUDY    48  32  53 SW15      29.64R
$$

MNZ071-072-080-081-089-090-097-098-161800-
SOUTHWEST MINNESOTA

CITY           SKY/WX    TMP DP  RH WIND       PRES   REMARKS
FAIRMONT       CLOUDY    48  28  46 S24G30    29.77F
JACKSON        CLOUDY    50  28  43 S22G32    29.72F
LUVERNE        LGT RAIN  45  36  70 S13       29.66F
MARSHALL       CLOUDY    34  28  80 NE14      29.78R WCI  24
MONTEVIDEO     LGT SNOW  32  30  93 E20       29.83R VSB 3/4 WCI  20
PIPESTONE      LGT RAIN  39  37  93 NE10      29.69R
REDWOOD FALLS  LGT SNOW  34  31  88 NE10      29.80R VSB 1   WCI  26
TRACY          RAIN      35  32  90 E16       29.71F WCI  25
WINDOM         CLOUDY    48  28  46 S13G18    29.72S
WORTHINGTON    CLOUDY    48  27  43 S22G28    29.71R
$$

IAZ001>003-012>014-020>022-031-032-NEZ013-014-SDZ071-161800-
NORTHWEST IOWA

CITY           SKY/WX    TMP DP  RH WIND       PRES   REMARKS
CHEROKEE       CLOUDY    52  32  46 S17       29.71F
DENISON        CLOUDY    54  28  37 S31G44    29.71S
ESTHERVILLE    CLOUDY    50  31  48 S30G37    29.73S
LE MARS        CLOUDY    54  28  37 S20G29    29.67F
ORANGE CITY    CLOUDY    52  27  37 S23G29    29.67F
SHELDON        CLOUDY    50  28  43 S23G31    29.67S
SIOUX CITY     CLOUDY    56  27  32 S24G32    29.69R
SPENCER        CLOUDY    52  31  44 S25G35    29.72F
STORM LAKE     CLOUDY    50  30  46 S24G32    29.73R
$$

ABBREVIATIONS USED IN REMARKS
   TC - TEMPERATURE IN CELSIUS
  WCI - WIND CHILL INDEX
   HX - HEAT INDEX
  VSB - VISIBILITY




USA.gov is the U.S. government's official web portal to all federal, state and local government web resources and services.